Regional Weather Roundup
Issued by NWS

Home | Current Version | Previous Version | Text Only | Print | Product List | Glossary Off
Versions: 1 2 3 4 5 6 7 8 9 10 11 12 13 14 15 16 17 18 19 20 21 22 23 24 25 26 27 28 29 30 31 32 33 34 35 36 37 38 39 40 41 42 43 44 45 46 47 48 49 50

000
ASUS43 KMKX 200300
RWRWI

WISCONSIN REGIONAL WEATHER ROUNDUP
NATIONAL WEATHER SERVICE MILWAUKEE/SULLIVAN WI
1000 PM CDT SAT AUG 19 2017

NOTE: "FAIR" INDICATES FEW OR NO CLOUDS BELOW 12,000 FEET WITH NO
SIGNIFICANT WEATHER AND/OR OBSTRUCTIONS TO VISIBILITY.

WIZ001-002-006>008-014>016-023>028-200400-
NORTHWEST WISCONSIN

CITY           SKY/WX    TMP DP  RH WIND       PRES   REMARKS
SUPERIOR ARPT    N/A     67  62  85 SW5       29.86R
ASHLAND        CLEAR     65  60  84 S8        29.89R
HAYWARD        CLEAR     62  58  86 CALM      29.92R
SIREN          CLEAR     66  60  80 CALM      29.90S
CUMBERLAND     CLEAR     63  59  88 CALM      29.92S
RICE LAKE      CLEAR     64  61  91 CALM      29.93S
CHETEK         CLEAR     64  62  93 CALM      29.92S
LADYSMITH      CLEAR     67  61  79 CALM      29.95R
EAU CLAIRE     PTCLDY    66  63  90 CALM      29.92R
MENOMONIE      CLEAR     67  62  85 SE3       29.92R
NEW RICHMOND   CLEAR     66  60  82 SE3       29.91R
OSCEOLA        CLEAR     65  61  87 SE5       29.93R
$$

WIZ003>005-009-010-017-018-200400-
NORTH CENTRAL WISCONSIN

CITY           SKY/WX    TMP DP  RH WIND       PRES   REMARKS
MANITOWISH WTR CLEAR     59  59 100 CALM      29.93R
ARBOR VITAE    CLEAR     64  60  87 CALM      29.94R
WOODRUFF       CLEAR     64  60  87 CALM      29.94R
RHINELANDER    CLEAR     61  60  97 W3        29.96R
EAGLE RIVER    CLEAR     60  60 100 CALM      29.93S
LAND O LAKES   CLEAR     58  58  97 CALM      29.95R
PHILLIPS       CLEAR     64  62  93 SW3       29.93R
TOMAHAWK         N/A     61  59  92 CALM      29.95R
MEDFORD        CLEAR     60  58  92 S5        29.95S
MERRILL        NOT AVBL
$$

WIZ029-030-035-036-043>047-200400-
CENTRAL WISCONSIN

CITY           SKY/WX    TMP DP  RH WIND       PRES   REMARKS
WAUSAU         CLEAR     64  60  87 CALM      29.94R
MOSINEE        CLEAR     63  59  88 SW5       29.97R
MARSHFIELD     CLEAR     64  59  83 SW3       29.95R
STEVENS POINT  CLEAR     61  60  96 CALM      29.96R
WAUPACA        CLEAR     66  62  85 CALM      29.95R
WAUTOMA        CLEAR     63  61  93 CALM      29.96R
WISC RAPIDS    CLEAR     61  59  93 CALM      29.97R
CAMP DOUGLAS   FOG       57  57 100 CALM      29.95R VSB 1
$$

WIZ011>013-019>022-031-037>040-048>050-200400-
NORTHEAST WISCONSIN

CITY           SKY/WX    TMP DP  RH WIND       PRES   REMARKS
ANTIGO         CLEAR     61  59  92 SW5       29.96R
SHAWANO        CLEAR     67  62  84 CALM      29.93R
OCONTO         CLEAR     64  62  92 CALM      29.91R
STURGEON BAY   CLEAR     69  62  78 SW6       29.93R
GREEN BAY      CLEAR     64  63  96 SW3       29.93R
MANITOWOC      NOT AVBL
APPLETON       CLEAR     66  55  68 W6        29.94R
CLINTONVILLE   CLEAR     63  59  88 CALM      29.93R
OSHKOSH        CLEAR     69  61  75 SW5       29.95R
$$

WIZ032>034-041-042-053>061-200400-
SOUTHWEST WISCONSIN

CITY           SKY/WX    TMP DP  RH WIND       PRES   REMARKS
LA CROSSE      CLEAR     69  62  78 SE5       29.93R
SPARTA         CLEAR     62  60  96 CALM      29.96R
VIROQUA        CLEAR     69  59  71 CALM      29.97R
BOSCOBEL       CLEAR     65  63  93 CALM      29.96R
PRAIRIE DU CHI CLEAR     65  60  82 SE3       29.95R
PLATTEVILLE    CLEAR     67  64  88 SE6       29.98R
$$

WIZ056-057-062-063-064-067-068-200400-
SOUTH CENTRAL WISCONSIN

CITY           SKY/WX    TMP DP  RH WIND       PRES   REMARKS
REEDSBURG      CLEAR     64  62  94 CALM      29.96R
BARABOO/DELLS  CLEAR     64  60  84 CALM      29.97R
LONE ROCK      NOT AVBL
MINERAL POINT  CLEAR     70  61  73 S3        29.98R
MADISON        CLEAR     65  62  90 CALM      29.96R
MIDDLETON      CLEAR     65  64  98 CALM      29.98R
WATERTOWN      CLEAR     64  64  99 CALM      29.96S
MONROE         CLEAR     70  61  73 S5        29.98R
JANESVILLE     CLEAR     68  64  88 CALM      29.97R
$$

WIZ051-052-058>065-066-070>072-200400-
SOUTHEAST WISCONSIN

CITY           SKY/WX    TMP DP  RH WIND       PRES   REMARKS
MILWAUKEE      CLEAR     72  62  71 SW5       29.97R
WAUKESHA       NOT AVBL
MILWAUKEE/TIMM CLEAR     68  59  73 CALM      29.98R
RACINE         CLEAR     66  62  87 S3        29.99R
KENOSHA        CLEAR     68  59  73 S6        29.98R
FOND DU LAC    CLEAR     68  61  78 SW6       29.96R
SHEBOYGAN      CLEAR     65  64  97 SW3       29.95S
WEST BEND      CLEAR     63  63 100 CALM      29.97S
JUNEAU         CLEAR     67  61  80 CALM      29.97S
$$

LSZ147-162-200400-
LAKE SUPERIOR

STATION/POSITION TIME  TEMP    WIND        PRES    WAVE
                       AIR SEA DIR/SP/G            HT/PER
                 (UTC) (F)     (DEG/KT/KT) (MB)    (FT/S)
W MID LAKE BUOY  0150   65 60  220/  8/ 10 1010.0R   1/ 3
DEVILS ISLAND    0200   73     200/  9/ 11 1010.4R
SAXON HARBOR     0240   67     190/  4/  5 1011.5R
$$

LMZ867-665-643>646-200400-
LAKE MICHIGAN

STATION/POSITION TIME  TEMP    WIND        PRES    WAVE
                       AIR SEA DIR/SP/G            HT/PER
                 (UTC) (F)     (DEG/KT/KT) (MB)    (FT/S)
S GREEN BAY BUOY 0230   73 71  230/  8/  8 1012.6R
N MID LAKE BUOY  0150   69 67  200/ 12/ 14 1012.0R   2/ 4
NORTHPORT PIER   0240   72     240/  3/  6 1011.9S
KEWAUNEE LAKESHO 0230   70     290/  2/  4 1012.5R
SHEBOYGAN LAKESH 0200   72     220/  9/  9 1013.5R
PORT WASHINGTON  0240   72     270/  4/  5 1015.2R
ATWATER BUOY     0109   75 71  240/  4/  6 1014.3R
MILWAUKEE LAKESH 0240   76     230/  5/  5   N/A
S MID LAKE BUOY  0150   72 72  170/  8/  8 1014.5R   1
KENOSHA   LAKESH 0200   71     190/  6/  7 1014.6
$$

TC  - TEMPERATURE IN CELSIUS
VSB - VISIBILITY IN STATUTE MILES
WCI - WIND CHILL INDEX
HX  - HEAT INDEX





USA.gov is the U.S. government's official web portal to all federal, state and local government web resources and services.